FW2284 Weather Reports


Display with metric or nautical units.
time (UTC)temp
F
wind
direction
speed
MPH
gust
MPH
rain 1hr
in
rain 24hr
in
rain mn
in
humidity
%
barometer
mb
20260902221501 97 155 5.0 8.0 0.00 0.00 0.00 42 1012.9
20260902220100 98 221 3.0 7.0 0.00 0.00 0.00 43 1012.8
20260902214558 99 169 3.0 8.0 0.00 0.00 0.00 45 1012.9
20260902213058 98 210 5.0 9.0 0.00 0.00 0.00 45 1013.0
20260902211555 98 296 2.0 6.0 0.00 0.00 0.00 42 1013.0
20260902210053 97 129 2.0 8.0 0.00 0.00 0.00 46 1013.2
20260902204551 98 266 4.0 8.0 0.00 0.00 0.00 46 1013.3
20260902203053 97 143 6.0 9.0 0.00 0.00 0.00 45 1013.5
20260902201548 96 229 3.0 8.0 0.00 0.00 0.00 46 1013.7
20260902200045 98 156 5.0 10.0 0.00 0.00 0.00 47 1013.9
20260902194542 98 229 2.0 8.0 0.00 0.00 0.00 47 1013.9
20260902193053 97 197 3.0 9.0 0.00 0.00 0.00 47 1014.1
20260902191540 97 146 0.0 10.0 0.00 0.00 0.00 48 1014.2
20260902190036 97 278 2.0 9.0 0.00 0.00 0.00 46 1014.3
20260902184532 97 223 4.0 8.0 0.00 0.00 0.00 44 1014.6
20260902183031 96 311 4.0 8.0 0.00 0.00 0.00 47 1014.5
20260902181530 96 285 5.0 10.0 0.00 0.00 0.00 46 1014.7
20260902180028 96 251 5.0 9.0 0.00 0.00 0.00 47 1014.9
20260902174628 95 231 4.0 9.0 0.00 0.00 0.00 51 1015.0
20260902173023 95 257 4.0 9.0 0.00 0.00 0.00 51 1015.2
20260902171522 94 271 3.0 11.0 0.00 0.00 0.00 52 1015.5
20260902170020 93 293 4.0 11.0 0.00 0.00 0.00 51 1015.7
20260902164519 94 99 4.0 10.0 0.00 0.00 0.00 52 1015.7
20260902163020 93 212 5.0 13.0 0.00 0.00 0.00 53 1015.8
20260902161514 92 241 3.0 9.0 0.00 0.00 0.00 56 1015.9
20260902160018 91 236 3.0 10.0 0.00 0.00 0.00 57 1015.9
20260902154512 91 273 5.0 10.0 0.00 0.00 0.00 56 1016.2
20260902153009 91 265 4.0 7.0 0.00 0.00 0.00 57 1016.0
20260902151507 90 308 3.0 5.0 0.00 0.00 0.00 57 1015.8
20260902150105 89 200 4.0 11.0 0.00 0.00 0.00 59 1015.8
20260902144602 89 264 3.0 6.0 0.00 0.00 0.00 60 1015.7
20260902143058 87 226 4.0 8.0 0.00 0.00 0.00 61 1015.9
20260902141554 86 202 3.0 6.0 0.00 0.00 0.00 62 1015.9
20260902140053 85 152 3.0 9.0 0.00 0.00 0.00 65 1016.0
20260902134548 84 270 2.0 7.0 0.00 0.00 0.00 67 1016.2
20260902133044 83 219 3.0 6.0 0.00 0.00 0.00 68 1016.3
20260902131541 82 200 2.0 4.0 0.00 0.00 0.00 69 1016.3
20260902130037 81 178 1.0 4.0 0.00 0.00 0.00 71 1016.1
20260902124536 80 198 2.0 5.0 0.00 0.00 0.00 72 1016.1
20260902123035 79 202 2.0 5.0 0.00 0.00 0.00 74 1016.2
20260902121538 77 216 1.0 3.0 0.00 0.00 0.00 77 1016.0
20260902120031 76 193 0.0 3.0 0.00 0.00 0.00 79 1016.0
20260902114558 76 158 0.0 2.0 0.00 0.00 0.00 80 1015.8
20260902113031 76 180 1.0 2.0 0.00 0.00 0.00 79 1015.4
20260902111529 76 127 0.0 3.0 0.00 0.00 0.00 79 1015.3
20260902110028 76 159 1.0 3.0 0.00 0.00 0.00 79 1015.3
20260902104527 76 152 1.0 3.0 0.00 0.00 0.00 78 1015.3
20260902103026 77 147 0.0 3.0 0.00 0.00 0.00 78 1015.3
20260902101524 77 198 1.0 3.0 0.00 0.00 0.00 77 1015.3
20260902100024 77 159 1.0 5.0 0.00 0.00 0.00 77 1015.1
20260902094519 78 158 2.0 4.0 0.00 0.00 0.00 76 1015.1
20260902093022 78 139 1.0 5.0 0.00 0.00 0.00 75 1015.1
20260902091517 79 187 3.0 6.0 0.00 0.00 0.00 75 1015.0
20260902090019 79 203 3.0 6.0 0.00 0.00 0.00 75 1015.0
20260902084614 79 147 2.0 6.0 0.00 0.00 0.00 75 1014.9
20260902083013 79 205 2.0 5.0 0.00 0.00 0.00 75 1014.9
20260902081513 80 162 2.0 6.0 0.00 0.00 0.00 75 1014.7
20260902080012 80 203 3.0 5.0 0.00 0.00 0.00 75 1014.8
20260902074514 80 202 3.0 6.0 0.00 0.00 0.00 75 1014.8
20260902073010 80 176 1.0 5.0 0.00 0.00 0.00 75 1014.8
20260902071510 79 172 2.0 6.0 0.00 0.00 0.00 76 1014.7
20260902070008 79 143 1.0 4.0 0.00 0.00 0.00 76 1014.7
20260902064508 79 169 1.0 3.0 0.00 0.00 0.00 76 1014.8
20260902063007 80 148 2.0 4.0 0.00 0.00 0.00 76 1014.7
20260902061516 80 155 1.0 3.0 0.00 0.00 0.00 75 1015.0
20260902060029 80 146 1.0 4.0 0.00 0.00 0.00 75 1014.8
20260902054503 80 148 1.0 4.0 0.00 0.00 0.00 74 1014.9
20260902053105 81 168 2.0 5.0 0.00 0.00 0.00 73 1014.8
20260902051559 81 162 2.0 6.0 0.00 0.00 0.00 72 1014.8
20260902050057 81 166 3.0 7.0 0.00 0.00 0.00 72 1014.7
20260902044558 81 151 1.0 4.0 0.00 0.00 0.00 73 1014.7
20260902043056 80 116 0.0 3.0 0.00 0.00 0.00 73 1014.7
20260902041607 80 200 1.0 3.0 0.00 0.00 0.00 73 1014.7
20260902040054 80 143 0.0 2.0 0.00 0.00 0.00 73 1014.8
20260902034554 81 143 0.0 2.0 0.00 0.00 0.00 72 1014.7
20260902033054 82 146 1.0 3.0 0.00 0.00 0.00 71 1014.9
20260902031606 82 134 1.0 3.0 0.00 0.00 0.00 69 1014.8
20260902030056 82 130 0.0 2.0 0.00 0.00 0.00 69 1014.8
20260902024604 82 126 0.0 3.0 0.00 0.00 0.00 68 1014.7
20260902023101 82 121 0.0 0.0 0.00 0.00 0.00 69 1014.7
20260902021557 82 119 0.0 3.0 0.00 0.00 0.00 68 1014.4
20260902020051 82 153 0.0 0.0 0.00 0.00 0.00 70 1014.2
20260902014550 83 153 0.0 0.0 0.00 0.00 0.00 66 1014.1
20260902013050 83 153 0.0 0.0 0.00 0.00 0.00 66 1013.9
20260902011549 83 160 0.0 0.0 0.00 0.00 0.00 67 1013.7
20260902010048 85 160 0.0 0.0 0.00 0.00 0.00 64 1013.7
20260902004550 87 160 0.0 0.0 0.00 0.00 0.00 60 1013.7
20260902003047 90 160 0.0 0.0 0.00 0.00 0.00 55 1013.7
20260902001556 95 160 0.0 0.0 0.00 0.00 0.00 46 1013.7
20260902000045 97 160 0.0 0.0 0.00 0.00 0.00 43 1013.8
20260901234543 97 160 0.0 2.0 0.00 0.00 0.00 42 1014.0
20260901233053 97 222 0.0 2.0 0.00 0.00 0.00 43 1014.0
20260901231543 97 201 0.0 3.0 0.00 0.00 0.00 41 1014.0
20260901230041 98 221 1.0 3.0 0.00 0.00 0.00 40 1014.1
20260901224540 97 222 1.0 6.0 0.00 0.00 0.00 40 1014.0
20260901223040 97 231 1.0 6.0 0.00 0.00 0.00 41 1014.1